DIAMANT DEB, 2684

Orbit data source: Space-Track

DIAMANT DEB, 2684 is space debris in LEO originally from a launch on Wed, 15 Feb 1967 UTC launched from the Hamma Guira Space Track Range (HGSTR). Debris objects in space refer to the collection of defunct objects orbiting the Earth. Examples of debris include non-operational satellites, rocket bodies, and fragments generated from explosions, collisions, or faulty payload assembly.

Loading next visibility...
DIAMANT DEB details
Identifier
2684, 1967-014C
Orbit
LEO
Last TLE update1 day ago
Origin
Flag of FRCNES (FR)
ManufacturerUnknown
MissionSpacecraft
Bus & MotorUnknown
MassUnknown
Launch date (UTC)
1967-02-15 (58 years ago)
Launch vehicleUnknown
Launch site
Hamma Guira Space Track Range (HGSTR)
Object type
Payload
Rocket body
Debris
Shape & HBRUnknown
Radar Cross SectionSmall (<0.1 m²)

Expand to show TLE details & history

TLE from 1 day ago
0 DIAMANT DEB
1 02684U 67014C   24355.55583221  .00004046  00000-0  96356-3 0  9994
2 02684  39.9559 169.8419 0461939 291.0364  64.1590 14.04995934864390
Epoch: 2024-12-20T13:20Z
Definitive object data (Epoch: 2024-12-20T13:20:23.902Z)
Latitude-0.00005°
Longitude-119.8774°
Altitude742.88 km
Speed7.553 km/s
True Right ascension11h 19m 22s
True Declination0° 00' 00"
Sunlit
Object was in daylight at TLE epoch
Visualization TLE readout
Latitude-8.03865°
Longitude-134.38768°
Altitude654.88 km
Speed7.646 km/s
Apparent Right ascension07h 37m 38s
Apparent Declination-55° 26' 41"
Sunlit
Object is in daylight
Visualization observer readout
Local Sidereal Time12:12:08
Azimuth214.646° SW
Elevation-21.709°
Doppler factor1
Orbital elements
Apogee altitude1,214.104 km
Perigee altitude543.644 km
Semi-major axis7,257.011 km
Eccentricity0.0461939
Inclination39.9559°
RAAN169.8419°
Arg. of periapsis291.0364°
True anomaly69.04007°
Mean anomaly64.159°
Eccentric anomaly66.58781°
Mean motion3.5108 °/min
BSTAR0.00096356
Orbital period102.54 mins
Loading maneuver chart data...
Loading historical data...
Loading historical data...
Loading historical data...
Loading historical data...
Loading historical data...
Loading historical data...
Loading historical data...

DIAMANT DEB Visibility forecast

Observer location: undefined°, undefined

Span
Click to sort rows by Start time (UTC) header in descending order
Start Az.
Max El. time (UTC)
Max El. Az.
Max El.
End time (UTC)
End Az.
6 mins2024-12-21 13:23:13.197Z161.564° S2024-12-21 13:26:13.197Z130.855° SE14.297°2024-12-21 13:29:13.197Z104.104° ESE
11 mins2024-12-21 15:08:13.197Z219.715° SW2024-12-21 15:13:13.197Z147.315° SSE36.826°2024-12-21 15:19:13.197Z82.814° E
12 mins2024-12-21 16:56:13.197Z257.979° W2024-12-21 17:01:13.197Z209.151° SW44.871°2024-12-21 17:08:13.197Z83.859° E
13 mins2024-12-21 18:44:13.197Z276.425° WNW2024-12-21 18:50:13.197Z194.283° SSW44.89°2024-12-21 18:57:13.197Z102.963° ESE
12 mins2024-12-21 20:33:13.197Z274.154° WNW2024-12-21 20:39:13.197Z197.242° SSW37.45°2024-12-21 20:45:13.197Z137.523° SSE
8 mins2024-12-21 22:23:13.197Z251.254° W2024-12-21 22:26:13.197Z225.369° WSW17.425°2024-12-21 22:31:13.197Z183.602° SSW
|